Regional Weather Roundup
Issued by NWS

Home | Current Version | Previous Version | Text Only | Print | Product List | Glossary On
Versions: 1 2 3 4 5 6 7 8 9 10 11 12 13 14 15 16 17 18 19 20 21 22 23 24 25 26 27 28 29 30 31 32 33 34 35 36 37 38 39 40 41 42 43 44 45 46 47 48 49 50
000
ASUS45 KBOU 220607
RWRCO

WEATHER ROUNDUP FOR COLORADO
NATIONAL WEATHER SERVICE DENVER/BOULDER CO
1200 AM MDT FRI MAY 22 2015

NOTE: "FAIR" INDICATES FEW OR NO CLOUDS BELOW 12000 FEET WITH NO
SIGNIFICANT WEATHER AND/OR OBSTRUCTIONS TO VISIBILITY.

COZ001>005-013-030-031-220700-
...NORTHWEST COLORADO...

CITY           SKY/WX    TMP DP  RH WIND       PRES   REMARKS
CRAIG          CLOUDY    52  40  63 E14       29.97F
HAYDEN         CLOUDY    48  37  66 E8        30.00S
MEEKER         CLOUDY    52  40  63 CALM      30.00R
MOUNT WERNER   NOT AVBL
STEAMBOAT SPGS CLOUDY    47  38  71 E5        30.02S
WALDEN         CLOUDY    41  34  75 SW5       30.08F
$$

COZ006>008-011-220700-
...WEST CENTRAL VALLEYS...

CITY           SKY/WX    TMP DP  RH WIND       PRES   REMARKS
GRAND JUNCTION CLOUDY    54  44  69 E21G26    29.92S
MONTROSE       CLOUDY    54  41  61 SE6       29.99R
EAGLE          CLOUDY    46  45  93 E6        30.05S
RIFLE          CLOUDY    54  44  69 SE3       29.95R
DELTA          CLOUDY    58  42  55 SE7       29.95R
NUCLA          LGT RAIN  54  41  62 W9G21     30.04R
$$

COZ017>023-064>068-220700-
...SOUTHWEST COLORADO...

CITY           SKY/WX    TMP DP  RH WIND       PRES   REMARKS
DURANGO        LGT RAIN  44  39  82 CALM      30.09F
CORTEZ         MOCLDY    50  41  71 NE15      30.01R
PAGOSA SPRINGS TSTM      42  40  93 SW14G21   30.14R
TELLURIDE      RAIN      38  36  92 SW6       30.18R
WOLF CREEK PAS NOT AVBL
$$

COZ009-010-012-014-032>034-037-058>063-220700-
...CENTRAL COLORADO...

CITY           SKY/WX    TMP DP  RH WIND       PRES   REMARKS
ASPEN          CLOUDY    45  41  86 CALM      30.06R
BUENA VISTA    LGT RAIN  40  37  89 E5        30.13F
COPPER MTN     CLOUDY    37  30  75 SE10      30.21S
BERTHOUD PASS  HAZE      27  19  74 SE24G31   30.25S VSB<1/4 WCI  12
COTTONWOOD PAS LGT SNOW  36  34  93 SE14      30.17S
GUNNISON       CLOUDY    48  34  57 E10       30.07S
KREMMLING      CLOUDY    43  39  87 SW5       30.07F
LEADVILLE      CLOUDY    35  35 100 S10       30.14F WCI  27
SALIDA         CLOUDY    43  40  91 SE6       30.19F
SUNLIGHT       CLOUDY    36  34  93 NE3       30.18S
WILKERSON PASS MIX PCPN  32  32 100 S9G16     30.25F VSB 1/4 WCI  24
$$

COZ069>075-220700-
...SAN LUIS VALLEY/SANGRE DE CRISTO MOUNTAINS...

CITY           SKY/WX    TMP DP  RH WIND       PRES   REMARKS
ALAMOSA        CLOUDY    44  40  85 S7        30.09S
LA VETA PASS   MIX PCPN N/A N/A N/A MISG      30.16F VSB 1/2
SAGUACHE       DRIZZLE   43  41  93 S13       30.11F
$$

COZ035-036-038>040-220700-
...NORTHERN COLORADO FRONT RANGE...

CITY           SKY/WX    TMP DP  RH WIND       PRES   REMARKS
DENVER INTL AP CLOUDY    49  44  83 SE15      30.08F
DMNS CITY PARK   N/A     51  44  78 E3G10     30.07S
AURORA         CLOUDY    48  45  88 SE14      30.10S
FRONT RANGE AP CLOUDY    50  45  81 SE20      30.10F
ERIE MUNI ARPT CLOUDY    50  46  84 E5        30.07F
BOULDER MUN AP CLOUDY    50  46  87 CALM      30.07F
CENTENNIAL     CLOUDY    48  43  82 S13       30.09F
BROOMFIELD     CLOUDY    48  45  87 CALM      30.09S
FORT COLLINS   CLOUDY    50  45  81 SE6       30.08F
LONGMONT       CLOUDY    53  47  81 CALM      30.08F
$$

COZ041-046-047-076>085-087-088-220700-
...PIKES PEAK/PALMER DIVIDE AND SOUTHERN FOOTHILLS...

CITY           SKY/WX    TMP DP  RH WIND       PRES   REMARKS
COLO. SPRINGS  LGT RAIN  44  44 100 SE14      30.14F FOG
A. F. ACADEMY  LGT RAIN  44  44 100 S12       30.12F
ELLICOTT       NOT AVBL
FALCON         LGT RAIN  42  42 100 SE17      30.15F VSB 1/4
FORT CARSON    LGT RAIN  45 N/A N/A SE8       30.11F
LIMON          CLOUDY    44  44 100 SE18      30.15S FOG
MONUMENT HILL  NOT AVBL
TRINIDAD       LGT RAIN  46  44  93 CALM      30.11F
$$

COZ042>045-048>051-090-091-220700-
...NORTHEAST COLORADO...

CITY           SKY/WX    TMP DP  RH WIND       PRES   REMARKS
GREELEY ARPT   CLOUDY    50  45  81 SE13      30.09S
AKRON          CLOUDY    46  44  93 SE13      30.14F
BURLINGTON     CLOUDY    49  43  80 SE13      30.18F
WRAY           MOCLDY    49  44  83 SE8       30.17S
STERLING       CLOUDY    50  45  81 SE14      30.11F
HOLYOKE        NOT AVBL
FORT MORGAN    MOCLDY    47  44  87 SE12      30.12F
$$

COZ086-089-092>099-220700-
...SOUTHEAST COLORADO...

CITY           SKY/WX    TMP DP  RH WIND       PRES   REMARKS
PUEBLO         LGT RAIN  48  47  96 E14       30.07F
LA JUNTA       RAIN      50  47  89 SE15      30.12F FOG
LAMAR          LGT RAIN  49  48  97 SE10      30.13F FOG
SPRINGFIELD      N/A     47  47 100 S7        30.16F
$$


USA.gov is the U.S. government's official web portal to all federal, state and local government web resources and services.